This demonstration page uses our WeatherBlox Daily Observations layout. Learn more.

Hourly Observations for August 8, 2019

Temp ( °F °C ) Dew Point ( °F °C ) Humidity (%) Winds ( mph kmh ) Pressure ( in mb ) Visibility ( mi km ) Precip ( " mm )
12:15 am 00:15 Clear 72 22.1 71 21.7 98 98 ESE 5 7 29.85 1011 10 16.09344 0 0
12:30 am 00:30 Clear 72 22.2 71 21.7 97 97 Calm 29.85 1011 10 16.09344 0 0
12:55 am 00:55 Clear 72 22 71 21.5 97 97 SSE 3 6 29.85 1011 10 16.09344 0 0
1:15 am 01:15 Clear 71 21.7 71 21.4 98 98 ESE 6 9 29.85 1011 10 16.09344 0 0
1:35 am 01:35 Clear 71 21.5 70 21.3 99 99 ESE 3 6 29.85 1011 10 16.09344 0 0
1:55 am 01:55 Clear 71 21.4 70 21.2 99 99 E 6 9 29.83 1010 10 16.09344 0 0
2:15 am 02:15 Clear 70 21.2 70 21.2 100 100 ESE 6 9 29.83 1010 10 16.09344 0 0
2:35 am 02:35 Clear 71 21.5 71 21.4 99 99 SE 6 9 29.85 1011 10 16.09344 0 0
2:55 am 02:55 Clear with Nearby Thunderstorms 70 21.2 70 21.1 99 99 ESE 3 6 29.88 1012 10 16.09344 0 0
3:15 am 03:15 Clear 71 21.5 70 21.1 98 98 Calm 29.88 1012 10 16.09344 0 0
3:35 am 03:35 Partly Cloudy with Light Rain 71 21.5 70 21.2 98 98 Calm 29.88 1012 10 16.09344 0 0
3:55 am 03:55 Partly Cloudy with Light Rain 71 21.6 71 21.5 99 99 Calm 29.88 1012 10 16.09344 0.01 0.254
4:15 am 04:15 Mostly Cloudy with Rain 71 21.5 70 21.2 98 98 Calm 29.91 1013 10 16.09344 0.02 0.508
4:35 am 04:35 Mostly Cloudy with Light Rain 71 21.5 70 21.3 99 99 SSW 5 7 29.88 1012 10 16.09344 0.03 0.762
4:55 am 04:55 Mostly Cloudy with Light Rain 71 21.5 70 21.1 98 98 Calm 29.88 1012 10 16.09344 0.04 1.016
5:15 am 05:15 Partly Cloudy 70 21 70 21 100 100 W 3 6 29.88 1012 10 16.09344 0 0
5:35 am 05:35 Clear 70 21 69 20.8 99 99 WNW 3 6 29.88 1012 10 16.09344 0 0
5:55 am 05:55 Partly Cloudy 69 20.7 69 20.7 100 100 Calm 29.88 1012 7 11.265408 0 0
6:15 am 06:15 Mostly Cloudy 69 20.6 69 20.6 100 100 Calm 29.88 1012 10 16.09344 0 0
6:35 am 06:35 Cloudy 70 21 70 21 100 100 Calm 29.88 1012 10 16.09344 0 0
6:55 am 06:55 Partly Cloudy 69 20.6 69 20.6 100 100 Calm 29.91 1013 10 16.09344 0 0
7:15 am 07:15 Sunny with Mist and Fog 68 20.1 68 20.1 100 100 Calm 29.88 1012 4 6.437376 0 0
7:35 am 07:35 Sunny 69 20.5 69 20.5 100 100 ESE 3 6 29.91 1013 7 11.265408 0 0
7:55 am 07:55 Sunny with Mist and Fog 69 20.7 69 20.7 100 100 E 3 6 29.91 1013 5 8.04672 0 0
8:15 am 08:15 Sunny 70 21.1 70 21.1 100 100 Calm 29.91 1013 7 11.265408 0 0
8:35 am 08:35 Sunny 71 21.9 71 21.7 99 99 ESE 3 6 29.91 1013 10 16.09344 0 0
8:55 am 08:55 Sunny 73 22.5 72 22 97 97 Calm 29.91 1013 10 16.09344 0 0
9:15 am 09:15 Sunny 74 23.2 72 22.2 94 94 NNE 3 6 29.88 1012 10 16.09344 0 0
9:35 am 09:35 Sunny 75 23.9 72 22.4 91 91 N 3 6 29.88 1012 10 16.09344 0 0
9:55 am 09:55 Sunny 76 24.4 72 22.4 89 89 NNE 3 6 29.88 1012 10 16.09344 0 0
10:15 am 10:15 Sunny 77 24.8 73 22.8 89 89 NE 7 11 29.88 1012 10 16.09344 0 0
10:35 am 10:35 Sunny 78 25.4 73 22.8 86 86 ENE 7 11 29.88 1012 10 16.09344 0 0
10:55 am 10:55 Sunny 79 26 74 23.1 84 84 E 7 11 29.88 1012 10 16.09344 0 0
11:15 am 11:15 Sunny 80 26.5 73 22.9 81 81 E 7 11 29.91 1013 10 16.09344 0 0
11:35 am 11:35 Partly Cloudy 81 27 73 22.6 77 77 E 7 11 29.91 1013 10 16.09344 0 0
11:55 am 11:55 Partly Cloudy 81 27.2 70 21 69 69 E 6 9 29.88 1012 10 16.09344 0 0
12:15 pm 12:15 Partly Cloudy 82 27.5 69 20.3 65 65 ESE 8 13 29.88 1012 10 16.09344 0 0
12:35 pm 12:35 Sunny 82 27.6 70 21.1 68 68 SE 9 15 29.88 1012 10 16.09344 0 0
12:55 pm 12:55 Partly Cloudy 82 27.9 70 21 66 66 SE 9 15 29.88 1012 10 16.09344 0 0
1:15 pm 13:15 Partly Cloudy 82 27.9 69 20.5 64 64 SE 7 11 29.88 1012 10 16.09344 0 0
1:35 pm 13:35 Mostly Cloudy 82 27.8 69 20.7 65 65 SE 8 13 29.88 1012 10 16.09344 0 0
1:55 pm 13:55 Mostly Cloudy 82 27.7 69 20.3 64 64 SE 8 13 29.88 1012 10 16.09344 0 0
2:15 pm 14:15 Mostly Cloudy 82 27.9 70 20.9 66 66 ESE 8 13 29.85 1011 10 16.09344 0 0
2:35 pm 14:35 Mostly Cloudy 82 27.9 70 21 66 66 ESE 8 13 29.85 1011 10 16.09344 0 0
2:55 pm 14:55 Mostly Cloudy 83 28.1 71 21.5 67 67 SE 10 17 29.85 1011 10 16.09344 0 0
3:15 pm 15:15 Mostly Cloudy 82 28 71 21.7 69 69 SSE 9 15 29.85 1011 10 16.09344 0 0
3:35 pm 15:35 Partly Cloudy 82 27.5 71 21.7 71 71 S 7 11 29.85 1011 10 16.09344 0 0
3:55 pm 15:55 Partly Cloudy 81 27.3 71 21.9 72 72 SSE 9 15 29.85 1011 10 16.09344 0 0
4:15 pm 16:15 Partly Cloudy 81 27.3 71 21.9 72 72 S 6 9 29.83 1010 10 16.09344 0 0
4:35 pm 16:35 Sunny 82 27.7 71 21.4 69 69 S 6 9 29.83 1010 10 16.09344 0 0
4:55 pm 16:55 Sunny 82 27.7 70 21.2 68 68 S 7 11 29.83 1010 10 16.09344 0 0
5:15 pm 17:15 Sunny 82 27.7 71 21.4 69 69 SSE 5 7 29.83 1010 10 16.09344 0 0
5:35 pm 17:35 Sunny 81 27.2 71 21.6 72 72 Calm 29.85 1011 10 16.09344 0 0
5:55 pm 17:55 Sunny 81 27 72 22.3 76 76 Calm 29.85 1011 10 16.09344 0 0
6:15 pm 18:15 Sunny 79 25.9 73 22.8 83 83 Calm 29.88 1012 10 16.09344 0 0
6:35 pm 18:35 Sunny 77 25.2 73 23 88 88 ENE 3 6 29.88 1012 10 16.09344 0 0
6:55 pm 18:55 Sunny 77 25 74 23.5 91 91 ENE 3 6 29.88 1012 10 16.09344 0 0
7:15 pm 19:15 Mostly Cloudy with Light Rain 77 25 74 23.6 92 92 Calm 29.88 1012 10 16.09344 0 0
7:35 pm 19:35 Partly Cloudy with Light Rain 77 25 74 23.6 92 92 Calm 29.88 1012 7 11.265408 0 0
7:55 pm 19:55 Partly Cloudy with Light Rain 77 25.1 74 23.1 89 89 Calm 29.85 1011 10 16.09344 0 0
8:15 pm 20:15 Partly Cloudy with Light Rain 76 24.6 74 23.5 94 94 ESE 3 6 29.85 1011 10 16.09344 0.01 0.254
8:35 pm 20:35 Partly Cloudy with Light Rain 76 24.2 74 23.3 95 95 SSE 7 11 29.85 1011 10 16.09344 0.01 0.254
8:55 pm 20:55 Clear 75 23.7 73 22.9 95 95 ENE 7 11 29.88 1012 10 16.09344 0.01 0.254
9:15 pm 21:15 Partly Cloudy 74 23.6 73 22.6 94 94 Calm 29.88 1012 10 16.09344 0 0
9:35 pm 21:35 Mostly Cloudy 74 23.5 73 22.6 95 95 ESE 5 7 29.88 1012 10 16.09344 0 0
9:55 pm 21:55 Mostly Cloudy 74 23.1 73 22.5 96 96 ESE 7 11 29.88 1012 10 16.09344 0 0
10:15 pm 22:15 Partly Cloudy 73 23 72 22.2 95 95 ESE 6 9 29.91 1013 10 16.09344 0 0
10:35 pm 22:35 Clear 73 22.9 72 22 95 95 ESE 6 9 29.91 1013 10 16.09344 0 0
10:55 pm 22:55 Clear 73 22.9 71 21.9 94 94 S 3 6 29.91 1013 10 16.09344 0 0
11:15 pm 23:15 Clear 73 22.7 71 21.6 94 94 Calm 29.91 1013 10 16.09344 0 0
11:35 pm 23:35 Clear 72 22.1 71 21.4 96 96 SE 3 6 29.91 1013 10 16.09344 0 0
11:55 pm 23:55 Clear 71 21.6 71 21.4 99 99 Calm 29.94 1014 10 16.09344 0 0

Powered by AerisWeather